THORAD AGENA D DEB, 4767

Orbit data source: Space-Track

THORAD AGENA D DEB, 4767 is space debris in SSO originally from a launch on Wed, 08 Apr 1970 UTC launched from the Air Force Western Test Range (AFWTR). Debris objects in space refer to the collection of defunct objects orbiting the Earth. Examples of debris include non-operational satellites, rocket bodies, and fragments generated from explosions, collisions, or faulty payload assembly.

Loading next visibility...
Identifier
4767, 1970-025DM
Orbit
SSO
Country
Flag of USUS
Related business
Manufacturer
Unknown
Mission
Spacecraft
Bus & Motor
Unknown
Mass
Unknown
Launch date (UTC)
1970-04-08 (56 years ago)
Launch vehicle
Unknown
Launch site
Air Force Western Test Range (AFWTR)
Object type
Payload
Rocket body
Debris
Shape & HBR
Unknown shape, 0.1 m
Radar Cross Section
Medium (>0.1 m² and <1 m²)

Expand to show TLE details & history
Last TLE update: 8 hours ago

TLE from 8 hours ago
0 THORAD AGENA D DEB
1 04767U 70025DM  26256.22894270  .00000217  00000-0  28264-3 0  9998
2 04767  99.9276   2.3062 0051879  13.5300  15.9369 13.73445906814269
Epoch: 2026-09-13T05:29Z
TLE epoch observation values (Epoch: 2026-09-13T05:29:40.649Z)
Latitude
29.19271°
Longitude
-77.92223°
Altitude
954.024 km
Speed
7.396 km/s
True Right ascension
23h 46m 53s
True Declination
29° 03' 02"
Sunlit
Object was in full shadow at epoch
Visualization orbit readout
Latitude
Unknown
Longitude
Unknown
Altitude
Unknown
Speed
Unknown
Apparent Right ascension
Unknown
Apparent Declination
Unknown
Sunlit
N/A
Visualization observer readout
Local Sidereal Time
05:58:29
Azimuth
Unknown
Elevation
Unknown
Doppler factor
Unknown
Orbital elements
Apogee altitude
1,022.704 km
Perigee altitude
946.311 km
Semi-major axis
7,362.645 km
Eccentricity
0.00519
Inclination
99.9276°
RAAN
2.3062°
Arg. of periapsis
13.53°
True anomaly
16.10116°
Mean anomaly
15.9369°
Eccentric anomaly
16.01893°
Mean motion
3.43552 °/min
Orbital period
104.79 mins
BSTAR
0.00028264
Loading maneuver chart data...
Computing Atmospheric mass density...

Documentation

Showing up to 5 results
|